Location: Isle of Man Observatory
(54.1776°N, 4.6264°W)
Time: 06:21:45
(UTC+02:00)

Envisat - Pass Details

Date: 19 May 2026
Orbit: 761 x 763 km, 98.4° (Epoch: 11 June)

Event Time Altitude Azimuth Distance (km) Brightness Sun altitude
Rises 03:19:18 0° 29° (NNE) 3,237 7.9 -14.8°
Reaches altitude 10° 03:23:12 10° 59° (ENE) 2,304 6.2 -14.6°
Maximum altitude 03:25:13 12° 83° (E) 2,148 5.6 -14.6°
Drops below altitude 10° 03:27:13 10° 106° (ESE) 2,297 5.5 -14.5°
Sets 03:31:04 0° 137° (SE) 3,215 5.9 -14.3°
